Showing default

YAOGAN-30 L, 43171

Orbit data source: Space-Track

YAOGAN-30 L, 43171 is a payload satellite owned by PLA SSF (CN) in LEO that was launched on Thu, 25 Jan 2018 UTC via a CHANG ZHENG 2C launch vehicle from the Xichang Space Center, China (XSC). Payload-class satellites include a variety of spacecraft equipped with specific instruments for various scientific and technological missions. These include communications satellites like Starlink; space stations such as the ISS; scientific satellites like the Hubble; Earth observation satellites from companies like Planet Labs, Umbra, and HawkEye 360; GPS; miniature CubeSats for education and research; and military/defense satellites.

Loading next visibility...
Identifier
43171, 2018-011C
Orbit
LEO
Country
Flag of CNCN / PRC
Related business
Manufacturer
SECM
Mission
Operational Defense Sigint
Bus & Motor
Unknown
Mass
~500 kg wet, ~500 kg dry
Launch date (UTC)
2018-01-25 (8 years ago)
Launch vehicle
CHANG ZHENG 2C
Launch site
Xichang Space Center, China (XSC)
Object type
Payload
Rocket body
Debris
Shape & HBR
Box + 2 Pan, 0.5 m
Radar Cross Section
0.446 m², Large (>1 m²)

Expand to show TLE details & history
Last TLE update: 22 hours ago

TLE from 22 hours ago
0 YAOGAN-30 L
1 43171U 18011C   26172.54951992  .00001834  00000-0  13673-3 0  9998
2 43171  34.9943 124.1184 0001517 336.7839  23.2800 15.02727205458872
Epoch: 2026-06-21T13:11Z
TLE epoch observation values (Epoch: 2026-06-21T13:11:18.521Z)
Latitude
-0.00003°
Longitude
16.54299°
Altitude
556.441 km
Speed
7.586 km/s
True Right ascension
08h 16m 28s
True Declination
0° 00' 00"
Sunlit
Object was in daylight at epoch
Visualization orbit readout
Latitude
Unknown
Longitude
Unknown
Altitude
Unknown
Speed
Unknown
Apparent Right ascension
Unknown
Apparent Declination
Unknown
Sunlit
N/A
Visualization observer readout
Local Sidereal Time
21:49:29
Azimuth
Unknown
Elevation
Unknown
Doppler factor
Unknown
Orbital elements
Apogee altitude
562.766 km
Perigee altitude
560.66 km
Semi-major axis
6,939.85 km
Eccentricity
0.00015
Inclination
34.9943°
RAAN
124.1184°
Arg. of periapsis
336.7839°
True anomaly
23.28687°
Mean anomaly
23.28°
Eccentric anomaly
23.28344°
Mean motion
3.75421 °/min
Orbital period
95.89 mins
BSTAR
0.00013673
Loading maneuver chart data...
Computing Atmospheric mass density...
Loading historical data...
Loading historical data...
Loading historical data...
Loading historical data...
Loading historical data...
Loading historical data...
Loading historical data...
Other satellites on launch #11 in the year 2018 (2018-01-25 UTC)

Documentation

Showing up to 5 results
|